Regional Weather Roundup
Issued by NWS Wakefield, VA

Home | Current Version | Previous Version | Text Only | Print | Product List | Glossary On
Versions: 1 2 3 4 5 6 7 8 9 10 11 12 13 14 15 16 17 18 19 20 21 22 23 24 25 26 27 28 29 30 31 32 33 34 35 36 37 38 39 40 41 42 43 44 45 46 47 48 49
000
ASUS41 KAKQ 180910
RWRAKQ

REGIONAL WEATHER ROUNDUP
NATIONAL WEATHER SERVICE WAKEFIELD VA
500 AM EDT THU SEP 18 2014

Note: "fair" indicates few or no clouds below 12,000 feet with no
significant weather and/or obstructions to visibility. * = Denotes
station may not report precipitation (e.g., rain,snow,etc.),
thunder or fog.

VAZ042-051-052>054-056-181000-
NORTHERN VIRGINIA

CITY           SKY/WX    TMP DP  RH WIND       PRES   REMARKS
WASH NATIONAL  CLOUDY    65  53  65 SW3       29.98S
DULLES         CLOUDY    54  52  93 CALM      29.98R
FORT BELVOIR   CLOUDY    57  56  95 CALM      29.98S
QUANTICO       MOCLDY    60  56  86 NW7       29.98S
FREDERICKSBRG* CLOUDY    58  58  99 CALM      29.97S
STAFFORD*      MOCLDY    55  55 100 CALM      30.02R
WARRENTON      CLOUDY    54  54 100 CALM      29.97S
CULPEPER*      PTCLDY    52  52 100 CALM      29.99R
MANASSAS*      CLOUDY    55  54  94 CALM      29.98S
LEESBURG*      PTCLDY    55  55 100 CALM      29.98S
WINCHESTER     PTCLDY    50  50 100 CALM      29.97S FOG
FRONT ROYAL*   MOSUNNY   52  52 100 CALM      29.97R
LURAY*         PTSUNNY   52  52 100 CALM      29.98S FOG
$$

VAZ048-049-060>072-079>083-181000-
CENTRAL AND SOUTH CENTRAL VIRGINIA...AND NORTH CENTRAL NORTH CAROLINA

CITY           SKY/WX    TMP DP  RH WIND       PRES   REMARKS
RICHMOND       PTCLDY    58  56  93 CALM      29.97R
CHESTERFIELD*  PTSUNNY  N/A N/A N/A CALM      29.98R
PETERSBURG*    PTCLDY    54  53  96 CALM      29.98R
HANOVER        CLEAR     55  54  96 CALM      29.99R FOG
TAPPAHANNOCK*  MOCLDY    55  52  90 CALM      29.98R
CHARLOTTSVILLE PTCLDY    56  53  90 CALM      29.98R
ORANGE*        CLEAR     52  50  93 CALM      29.99S FOG
LOUISA*        MOCLDY    55  54  94 CALM      29.97S FOG
FARMVILLE*     FOG       55  54  94 CALM      29.96S VSB 1
CREWE*         SUNNY     55  53  94 CALM      29.97S
FORT PICKETT*  SUNNY     57  57  97 CALM      29.97S
LUNENBURG*     SUNNY     57  57  97 CALM      29.97S
SOUTH HILL*    PTCLDY    57  57 100 N3        30.02R
LAWRENCEVILLE* CLOUDY    59  59  99 CALM      29.96R
ROANOKE RAPIDS FOG       55  55 100 CALM      29.95S VSB 1
RALEIGH        PTCLDY    61  58  90 CALM      29.96R
$$

VAZ088>098-181000-
SOUTHEAST VIRGINIA

CITY           SKY/WX    TMP DP  RH WIND       PRES   REMARKS
NORFOLK        MOCLDY    63  59  87 CALM      29.95R
VIRGINIA BEACH CLOUDY    60  57  89 CALM      29.94R
NORFOLK NAVAL  PTCLDY    64  57  78 CALM      29.96R
WEST POINT*    MOCLDY    57  55  92 CALM      29.98R
NEWPORT NEWS   CLEAR     61  56  83 CALM      29.96R
LANGLEY AFB    CLEAR     59  59 100 CALM      29.95R
FORT EUSTIS    CLEAR     59 N/A N/A CALM      29.94R
WILLIAMSBURG*  CLEAR     61  59  94 CALM      29.97R
HR EXEC AP*    SUNNY     54  50  87 CALM      29.97R
FRANKLIN*      CLEAR     54  54 100 CALM      29.96R
WAKEFIELD      PTCLDY    57  54  89 CALM      29.96R
$$

VAZ020-022-025-037-045-181000-
WEST CENTRAL AND SOUTHWEST VIRGINIA

CITY           SKY/WX    TMP DP  RH WIND       PRES   REMARKS
STAUNTON*      CLEAR     51  48  92 CALM      30.01R FOG
HOT SPRINGS VA CLOUDY    52  47  83 SW5       30.05S
LYNCHBURG      CLOUDY    58  57  97 CALM      30.00R
DANVILLE       PTCLDY    61  58  90 CALM      29.97R
SOUTH BOSTON*  NOT AVBL
MARTINSVILLE   CLOUDY    58  58 100 CALM      30.00S FOG
ROANOKE        MOCLDY    58  55  90 NE3       30.01S
BLACKSBURG     PTCLDY    57  57 100 CALM      30.02F FOG
DUBLIN*        CLEAR     57  57 100 CALM      30.02S FOG
MARION*        FOG       56  55  96 CALM      30.04S VSB 1/4
HILLSVILLE*    FOG       55  55 100 CALM      30.01F VSB 1
RICHLANDS*     FOG       57  55  95 CALM      30.03S VSB<1/4
WISE*          FOG       52  52 100 CALM      30.04S VSB 1
ABINGDON*      MOCLDY    55  55 100 CALM      30.01S
$$

MDZ021>025-VAZ099-100-181000-
SOUTHERN MARYLAND AND THE DELMARVA PENINSULA

CITY           SKY/WX    TMP DP  RH WIND       PRES   REMARKS
PATUXENT RIVER CLOUDY    59  56  89 SW3       29.97R
BAY BRIDGE APT   N/A     63  54  72 CALM      29.97S
LEONARDTOWN    CLOUDY    55  54  94 CALM      29.99R
DOVER          CLEAR     55  51  87 W1        29.95R
GEORGETOWN     CLEAR     52  48  86 CALM      29.98R
EASTON         CLOUDY    58  58 100 CALM      30.01R
CAMBRIDGE      CLEAR     54  50  87 CALM      29.97R
SALISBURY      CLEAR     53  48  83 CALM      29.97S
OCEAN CITY     CLEAR     51  48  89 NW3       29.97R
WALLOPS ISLAND CLEAR     55  52  89 NW3       29.97R
ACCOMACK*      CLEAR     52  50  93 CALM      29.96R
$$

NCZ012>017-030>032-181000-
EASTERN NORTH CAROLINA

CITY           SKY/WX    TMP DP  RH WIND       PRES   REMARKS
ELIZABETH CITY NOT AVBL
AHOSKIE*       CLEAR     57  56  95 CALM      29.95S
EDENTON*       CLEAR     62  61  96 CALM      29.93S
CURRITUCK*     PTCLDY    65  58  77 CALM      29.94S
KILL DEVIL HLS PTCLDY    70  57  64 NE5       29.92R
MANTEO         CLEAR     68  58  69 NE8       29.93R
CAPE HATTERAS  CLEAR     68  62  81 NE7       29.90S
TARBORO*       MOSUNNY   58  57  97 CALM      29.95R FOG
GOLDSBORO      CLEAR     62  62  98 CALM      29.92R
WASHINGTON     CLEAR     60  59  95 CALM      29.93S
GREENVILLE     CLEAR     61  61 100 CALM      29.95R
NEW BERN       PTCLDY    67  62  84 NE3       29.93R
WILMINGTON     CLEAR     66  64  93 NE5       29.90S
$$

VAZ048-181000-
ELSEWHERE

CITY           SKY/WX    TMP DP  RH WIND       PRES   REMARKS
HARRISBURG PA  MOCLDY    55  49  80 CALM      29.98R
BALTIMORE      MOCLDY    57  53  86 CALM      29.97R
ANNAPOLIS      CLOUDY    64  58  80 CALM      29.97R
ANDREWS AFB    MOCLDY    58  55  89 CALM      29.97S
WILMINGTON DE  PTCLDY    52  50  93 NW5       29.99R
PHILADELPHIA   CLEAR     58  51  78 NW5       29.98R
WILDWOOD NJ*   CLEAR     52  46  82 CALM      29.98R
ATLANTIC CITY  CLEAR     51  48  89 NW5       29.97R
HENDERSON NC   CLOUDY    58  56  95 CALM      29.97R FOG
GREENSBORO     MOCLDY    63  61  94 CALM      29.96R FOG
ROCKY MOUNT    CLEAR     61  59  93 NE6       29.94R
FAYETTEVILLE   MOCLDY    65  64  97 N6        29.92R
CHARLOTTE      CLOUDY    64  62  93 N3        29.95R FOG
$$

VAZ100-181000-
MARINE

STATION/POSITION TIME  TEMP    WIND        PRES    WAVE   SWELL
                       AIR SEA DIR/SP/G            HT/PER HT/PER
                 (UTC) (F)     (DEG/KT/KT) (MB)    (FT/S) (FT/S)
44066 TX TWR #4  0900   67 73   10/ 10/ 14 1013.6F   5/13   5/13
CAPE MAY NJ      0900   60 75   CALM  /  1 1014.3R
LEWES DE         0900   58 72  250/  2/  2 1014.5R
15NM E FENWICK I 0900   68 72              1014.5R   4/13
OCEAN-CITY-INLET 0900   62 71   10/  4/  5 1014.2S
WACHAPREAGUE VA  0900   57 74  330/  1/  2 1014.4R
THOMAS POINT MD  0900   67 74  240/  8/  8 1015.9R
GOOSES REEF MD   0900   68     260/  8/  8 1015.1R
COVE POINT MD    0900   67     270/  5/  6 1014.6R
SOLOMONS ISLAND  0900      76                N/A
BISHOPS HEAD MD  0900   67 71  100/  4/  4 1014.2R
PINEY POINT MD   0900          250/  3/  3   N/A
POTOMAC MD       0900   70     230/  6/  6 1013.9R
CAMBRIDGE MD     0900   60 75  200/  2/  2 1014.5R
LEWISETTA VA     0900   63 73  260/  4/  5 1014.5R
RAPPAHANNOCK LGT 0900           70/  4/  5 1015.0R
STINGRAY PT      0900   70     110/  4/  4   N/A
YORK RVR RNG VA  0900   70      70/  7/  8 1013.7S
YORKTOWN VA      0900   67 76   10/  2/  3 1013.9R
JAMESTOWN VA     0900   64      30/  2/  4   N/A
DOMINION TERM VA 0900   68      40/  3/  5 1014.1R
KIPTOPEKE VA     0900      78   50/  4/  5   N/A
CHES BAY BRIDGE  0900   71 75   40/  9/ 12 1013.5R
CAPE HENRY VA    0900   70      50/  9/ 11 1012.8R
CHESAPEAKE LGHT  0800   70      40/  9/ 11 1014.4R
WILLOUBY STN VA  0900   71      40/  6/  7 1012.8R
S CRANEY ISL VA  0900           40/  3/  4 1013.7R
CAPE HENRY BUOY  0900      75                N/A     4/14   3/14
1ST LANDING BUOY 0900   71      50/ 10/ 12 1013.6S
CAPE CHARLES BUO 0900      75                N/A     3/11   3/11
OFFSHORE WE BUOY 0900      74                N/A     4/13   5/13
64NM E OF VA BCH 0900   72 77   20/ 12/ 16 1012.8R   4/11   3/11
DUCK PIER NC     0900   71 76   40/ 10/ 12 1012.7R
44100 DUCK FRF   0900      74                N/A     4/12   3/12
44056 DUCK FRF   0900                        N/A     4/13   3/13
OREGON INLET NC  0900   71 75   30/  8/ 12 1012.9R
HATTERAS NC      0900   72 76   40/  9/ 13 1012.8S
DIAMOND SHLS NC  0900   74      20/ 16/ 19 1011.7F   6/14   5/14
CAPE LOOKOUT NC  0800   75      40/ 16/ 18 1011.9F
$$


USA.gov is the U.S. government's official web portal to all federal, state and local government web resources and services.